Easton, MD

10:09 PM EST on November 14, 2019 (GMT -0500)
Easton / Newnam

Weather History for KESN - September, 2019

Change the Weather History Date:

Sunday, September 22, 2019

  Actual Average Record
Temperature  
Mean Temperature 78 °F -  
Max Temperature 89 °F 78 °F 95 °F (1970)
Min Temperature 67 °F 55 °F 40 °F (1962)
Cooling Degree Days 13    
Growing Degree Days 28 (Base 50)    
Moisture  
Dew Point 67 °F    
Average Humidity 78    
Maximum Humidity 97    
Minimum Humidity 43    
Precipitation  
Precipitation 0.00 in - - ()
Sea Level Pressure  
Sea Level Pressure 30.17 in    
Wind  
Wind Speed 3 mph (South)    
Max Wind Speed 13 mph    
Max Gust Speed 16 mph    
Visibility 10 miles    
Events      
Averages and records for this station are not official NWS values.
T = Trace of Precipitation, MM = Missing Value Source: NWS Daily Summary

Daily Weather History Graph

Daily Weather History Graph

Search for Another Location

Airport or City:

Astronomy

Sep. 22, 2019 Rise Set
Actual Time 6:51 AM EDT 7:01 PM EDT
Civil Twilight 6:25 AM EDT 7:28 PM EDT
Nautical Twilight 5:54 AM EDT 7:59 PM EDT
Astronomical Twilight 5:22 AM EDT 8:30 PM EDT
Moon No Moon Rise 2:51 PM EDT (9/22)
Length of Visible Light 13h 03m
Length of Day
12h 09m
Last Quarter, 44% of the Moon is Illuminated
Sep 22
Last Quarter
Sep 28
New
Oct 5
First Quarter
Oct 13
Full
Oct 21
Last Quarter

Hourly Weather History & Observations

Time (EDT) Temp. Heat Index Dew Point Humidity Pressure Visibility Wind Dir Wind Speed Gust Speed Precip Events Conditions
12:19 AM 68.2 °F - 65.1 °F 90% 30.23 in 10.0 mi SE 4.6 mph - N/A   Clear
12:39 AM 68.5 °F - 65.3 °F 89% 30.23 in 10.0 mi Calm Calm - N/A   Clear
12:59 AM 68.9 °F - 65.3 °F 88% 30.24 in 10.0 mi South 3.5 mph - N/A   Clear
1:19 AM 68.4 °F - 65.5 °F 90% 30.24 in 10.0 mi Calm Calm - N/A   Clear
1:39 AM 68.4 °F - 66.2 °F 93% 30.23 in 10.0 mi Calm Calm - N/A   Clear
1:59 AM 68.7 °F - 66.6 °F 93% 30.23 in 10.0 mi Calm Calm - N/A   Clear
2:19 AM 68.9 °F - 66.7 °F 93% 30.23 in 10.0 mi Calm Calm - N/A   Clear
2:39 AM 68.5 °F - 66.4 °F 93% 30.22 in 10.0 mi Calm Calm - N/A   Clear
2:59 AM 68.5 °F - 66.6 °F 93% 30.21 in 10.0 mi Calm Calm - N/A   Clear
3:39 AM 67.6 °F - 66.4 °F 96% 30.20 in 10.0 mi SSE 3.5 mph - N/A   Clear
3:59 AM 68.0 °F - 66.9 °F 96% 30.20 in 10.0 mi Calm Calm - N/A   Clear
4:19 AM 68.0 °F - 66.6 °F 95% 30.20 in 10.0 mi SSE 3.5 mph - N/A   Clear
4:39 AM 68.0 °F - 66.7 °F 96% 30.20 in 10.0 mi Calm Calm - N/A   Clear
4:59 AM 68.0 °F - 66.7 °F 96% 30.19 in 10.0 mi Calm Calm - N/A   Clear
5:19 AM 68.0 °F - 67.1 °F 97% 30.20 in 10.0 mi Calm Calm - N/A   Clear
5:39 AM 68.0 °F - 67.1 °F 97% 30.19 in 10.0 mi SE 3.5 mph - N/A   Clear
5:40 AM 68.0 °F - 67.1 °F 97% 30.19 in 10.0 mi SE 3.5 mph - N/A   Clear
5:56 AM 68.0 °F - 66.2 °F 94% 30.19 in 10.0 mi Calm Calm - N/A   Scattered Clouds
6:52 AM 69.8 °F - 66.2 °F 88% 30.20 in 10.0 mi Calm Calm - N/A   Scattered Clouds
7:50 AM 69.8 °F - 66.2 °F 88% 30.20 in 10.0 mi Calm Calm - N/A   Clear
8:50 AM 73.4 °F - 69.8 °F 88% 30.21 in 10.0 mi South 4.6 mph - N/A   Clear
9:50 AM 78.8 °F - 68.0 °F 69% 30.21 in 10.0 mi South 3.5 mph - N/A   Clear
10:50 AM 82.4 °F 85.4 °F 68.0 °F 62% 30.21 in 10.0 mi WSW 3.5 mph - N/A   Clear
11:50 AM 87.8 °F 90.4 °F 66.2 °F 49% 30.19 in 10.0 mi South 6.9 mph - N/A   Clear
12:50 PM 87.8 °F 90.4 °F 66.2 °F 49% 30.17 in 10.0 mi South 9.2 mph - N/A   Clear
1:50 PM 89.6 °F 91.1 °F 64.4 °F 43% 30.14 in 10.0 mi South 12.7 mph - N/A   Clear
2:50 PM 89.6 °F 91.1 °F 64.4 °F 43% 30.13 in 10.0 mi South 11.5 mph - N/A   Clear
3:50 PM 89.6 °F 91.1 °F 64.4 °F 43% 30.11 in 10.0 mi South 10.4 mph 16.1 mph N/A   Clear
4:50 PM 89.6 °F 91.1 °F 64.4 °F 43% 30.11 in 10.0 mi South 9.2 mph - N/A   Scattered Clouds
5:48 PM 86.0 °F 88.2 °F 66.2 °F 51% 30.10 in 10.0 mi South 9.2 mph - N/A   Scattered Clouds
6:50 PM 82.4 °F 84.6 °F 66.2 °F 58% 30.10 in 10.0 mi South 8.1 mph - N/A   Scattered Clouds
7:50 PM 78.8 °F - 66.2 °F 65% 30.10 in 10.0 mi South 5.8 mph - N/A   Clear
8:45 PM 78.8 °F - 66.2 °F 65% 30.10 in 10.0 mi South 9.2 mph - N/A   Clear
9:45 PM 77.0 °F - 66.2 °F 69% 30.09 in 10.0 mi South 9.2 mph - N/A   Clear
10:19 PM 76.8 °F - 67.1 °F 72% 30.09 in 10.0 mi South 8.1 mph - N/A   Clear
10:39 PM 76.3 °F - 67.3 °F 74% 30.09 in 10.0 mi South 5.8 mph - N/A   Clear
10:59 PM 76.1 °F - 67.6 °F 75% 30.09 in 10.0 mi South 8.1 mph - N/A   Clear
11:19 PM 76.1 °F - 68.0 °F 76% 30.08 in 10.0 mi SSE 8.1 mph - N/A   Clear
11:39 PM 75.9 °F - 68.4 °F 77% 30.08 in 10.0 mi South 6.9 mph - N/A   Clear
11:59 PM 75.7 °F - 68.9 °F 79% 30.08 in 10.0 mi South 9.2 mph - N/A   Clear